{"data":{"norad_id":61974,"intl_designator":"2024-210R","name":"STARLINK-32593","alt_names":[],"object_type":"PAYLOAD","status":"ACTIVE","operator":null,"country":"US","launch_date":"2024-11-14","launch_site_code":"AFETR","launch_vehicle":null,"mission":null,"orbit_class":"UNKNOWN","rcs_meters":null,"size_class":null,"mass_kg":null,"dimensions":null,"purposes":["comms"],"wikipedia_slug":null,"has_3d_model":false,"image_url":null,"decayed_at":null,"tle_current":{"epoch":"2026-05-25T04:21:38.676096Z","epoch_age_seconds":68314,"freshness":"FRESH","line1":"1 61974U 24210R   26145.18169764  .00014294  00000+0  52770-3 0  9999","line2":"2 61974  43.0005 108.2493 0000806 263.8172  96.2588 15.27595062 86577","mean_motion":15.27595062,"eccentricity":8.06e-5,"inclination_deg":43.0005,"raan_deg":108.2493,"arg_perigee_deg":263.8172,"mean_anomaly_deg":96.2588,"bstar":0.0005277,"rev_number":8657,"period_min":94.265819248897,"perigee_km":482.45098739948,"apogee_km":483.55700332793,"semimajor_km":6861.1409953637,"source":"CELESTRAK","updated_at":"2026-05-25T13:38:19.515207Z"}}}